Location: Unspecified
(0.0000°N, 0.0000°E)
Time: 05:57:44
(UTC+00:00)

Tiros 1 - Pass Details

Date: 03 October 2020
Orbit: 630 x 663 km, 48.4° (Epoch: 28 October)

Event Time Altitude Azimuth Distance (km) Brightness Sun altitude
Rises 08:26:20 0° 187° (S) 2,913 10.5 39.2°
Reaches altitude 10° 08:29:43 10° 162° (SSE) 2,003 10.1 40.1°
Maximum altitude 08:32:07 14° 130° (SE) 1,751 10.3 40.7°
Drops below altitude 10° 08:34:31 10° 98° (E) 2,003 10.9 41.3°
Sets 08:37:52 0° 73° (ENE) 2,911 11.2 42.1°
